WetterOnline ( https://www.wetteronline.de )

Wetter aktuell Regensburg

Aktuelles Wetter: Regensburg/Oberhub (371m)

6-stündlich | Neueste Meldungen
Ortszeit Temperatur Wetter
Fr, 17.09. 2:00 11.9° C leicht bewölkt
Do, 16.09. 20:00 15.6° C bedeckt
Do, 16.09. 14:00 19.6° C bedeckt
Do, 16.09. 8:00 16.5° C wolkig
Do, 16.09. 2:00 17.5° C bedeckt
Mi, 15.09. 20:00 20.6° C leichter Regen
Mi, 15.09. 14:00 21.4° C bedeckt
Mi, 15.09. 8:00 14.4° C bedeckt
Ortszeit Temperatur Wetter
Fr, 17.09. 7:30 11.1° C bedeckt
Fr, 17.09. 7:20 11.1° C bedeckt
Fr, 17.09. 7:10 11.0° C bedeckt
Fr, 17.09. 7:00 10.7° C bedeckt
Fr, 17.09. 6:50 10.7° C bedeckt
Fr, 17.09. 6:40 10.6° C bedeckt
Fr, 17.09. 6:30 10.4° C bedeckt
Fr, 17.09. 6:00 10.2° C bedeckt
Fr, 17.09. 5:30 10.0° C leicht bewölkt
Fr, 17.09. 5:00 9.7° C wolkenlos
Fr, 17.09. 4:30 9.7° C wolkenlos
Ortszeit Relative Feuchte Sichtweite
Fr, 17.09. 2:00 94% 25 km
Do, 16.09. 20:00 90% 50 km
Do, 16.09. 14:00 89% 30 km
Do, 16.09. 8:00 94% 17 km
Do, 16.09. 2:00 93% 29 km
Mi, 15.09. 20:00 76% 26 km
Mi, 15.09. 14:00 70% 30 km
Mi, 15.09. 8:00 92% 30 km
Ortszeit Relative Feuchte Sichtweite
Fr, 17.09. 7:30 97% 9 km
Fr, 17.09. 7:20 97% -
Fr, 17.09. 7:10 97% -
Fr, 17.09. 7:00 97% 9 km
Fr, 17.09. 6:50 97% -
Fr, 17.09. 6:40 97% -
Fr, 17.09. 6:30 97% 12 km
Fr, 17.09. 6:00 98% 17 km
Fr, 17.09. 5:30 98% 15 km
Fr, 17.09. 5:00 97% 12 km
Fr, 17.09. 4:30 96% 12 km
Ortszeit Niederschlagsmenge Niederschlagsart
Fr, 17.09. 2:00 0.0 l/m2 in 6 Std. -
Do, 16.09. 20:00 4 l/m2 in 12 Std. Regen
Do, 16.09. 14:00 0.4 l/m2 in 6 Std. Regen
Do, 16.09. 8:00 0.8 l/m2 in 12 Std. Sprühregen
Do, 16.09. 2:00 0.8 l/m2 in 6 Std. Regen
Mi, 15.09. 20:00 0.1 l/m2 in 12 Std. Regen
Mi, 15.09. 14:00 0.1 l/m2 in 6 Std. Regen
Mi, 15.09. 8:00 0.0 l/m2 in 12 Std. -
Ortszeit Niederschlagsmenge Niederschlagsart
Fr, 17.09. 7:30 0.0 l/m2 in 1 Std. -
Fr, 17.09. 7:20 keine Meldung -
Fr, 17.09. 7:10 keine Meldung -
Fr, 17.09. 7:00 0.0 l/m2 in 1 Std. -
Fr, 17.09. 6:50 keine Meldung -
Fr, 17.09. 6:40 keine Meldung -
Fr, 17.09. 6:30 0.0 l/m2 in 1 Std. -
Fr, 17.09. 6:00 0.0 l/m2 in 1 Std. -
Fr, 17.09. 5:30 0.0 l/m2 in 1 Std. -
Fr, 17.09. 5:00 0.0 l/m2 in 1 Std. -
Fr, 17.09. 4:30 0.0 l/m2 in 1 Std. -
Ortszeit Stärke Spitze Richtung
km/h Bft. km/h Grad Sektor
Fr, 17.09. 2:00 7 2 22 10° N
Do, 16.09. 20:00 9 2 31 320° NW
Do, 16.09. 14:00 4 1 11 210° SW
Do, 16.09. 8:00 4 1 14 180° S
Do, 16.09. 2:00 7 2 22 200° S
Mi, 15.09. 20:00 4 1 14 170° S
Mi, 15.09. 14:00 2 1 17 280° W
Mi, 15.09. 8:00 2 1 9 20° N
Ortszeit Stärke Spitze Richtung
km/h Bft. km/h Grad Sektor
Fr, 17.09. 7:30 4 1 11 250° W
Fr, 17.09. 7:20 4 1 - 250° W
Fr, 17.09. 7:10 4 1 - 270° W
Fr, 17.09. 7:00 4 1 4 240° SW
Fr, 17.09. 6:50 4 1 - 240° SW
Fr, 17.09. 6:40 2 1 - 240° SW
Fr, 17.09. 6:30 0 0 4 - -
Fr, 17.09. 6:00 4 1 4 360° N
Fr, 17.09. 5:30 2 1 4 330° NW
Fr, 17.09. 5:00 4 1 7 350° N
Fr, 17.09. 4:30 4 1 7 360° N
Ortszeit Untergrenze Bedeckung Gattung
total tief tief mittel hoch
Fr, 17.09. 2:00 1320 m 4/8 2/8 - - -
Do, 16.09. 20:00 690 m 8/8 8/8 - - -
Do, 16.09. 14:00 390 m 8/8 8/8 - - -
Do, 16.09. 8:00 480 m 8/8 2/8 - - -
Do, 16.09. 2:00 630 m 8/8 8/8 - - -
Mi, 15.09. 20:00 1230 m 8/8 7/8 - - -
Mi, 15.09. 14:00 3000 m 8/8 8/8 - - -
Mi, 15.09. 8:00 3900 m 8/8 8/8 - - -
Ortszeit Bedeckungsgrad in Achtel und Wolkenuntergrenze
Fr, 17.09. 7:30 8(1500m)
Fr, 17.09. 7:20 8(1500m)
Fr, 17.09. 7:10 8(1500m)
Fr, 17.09. 7:00 8(1500m)
Fr, 17.09. 6:50 8(1500m)
Fr, 17.09. 6:40 8(1500m)
Fr, 17.09. 6:30 8(1500m)
Fr, 17.09. 6:00 8(1500m)
Fr, 17.09. 5:30 3(1500m)
Fr, 17.09. 5:00 keine Wolken
Fr, 17.09. 4:30 keine Wolken
Ortszeit Luftdruck NN (hPa) Tendenz (hPa in 3 Std.)
Fr, 17.09. 2:00 1017 + 0,3
Do, 16.09. 20:00 1015 + 1,0
Do, 16.09. 14:00 1014 - 0,7
Do, 16.09. 8:00 1015 0,0
Do, 16.09. 2:00 1015 + 0,1
Mi, 15.09. 20:00 1013 - 0,2
Mi, 15.09. 14:00 1014 - 0,4
Mi, 15.09. 8:00 1015 - 0,1
Ortszeit Luftdruck NN (hPa) Tendenz (hPa in 3 Std.)
Fr, 17.09. 7:30 1017 + 0,1
Fr, 17.09. 7:20 1017 keine Meldung
Fr, 17.09. 7:10 1017 keine Meldung
Fr, 17.09. 7:00 1017 - 0,2
Fr, 17.09. 6:50 1017 keine Meldung
Fr, 17.09. 6:40 1017 keine Meldung
Fr, 17.09. 6:30 1017 - 0,5
Fr, 17.09. 6:00 1017 - 0,5
Fr, 17.09. 5:30 1017 - 0,5
Fr, 17.09. 5:00 1017 - 0,5
Fr, 17.09. 4:30 1017 - 0,5
Ortszeit Schneehöhe (cm)
Fr, 17.09. 2:00 -
Do, 16.09. 20:00 -
Do, 16.09. 14:00 -
Do, 16.09. 8:00 -
Do, 16.09. 2:00 -
Mi, 15.09. 20:00 -
Mi, 15.09. 14:00 -
Mi, 15.09. 8:00 -
Ortszeit Schneehöhe (cm)
Fr, 17.09. 7:30 -
Fr, 17.09. 7:20 -
Fr, 17.09. 7:10 -
Fr, 17.09. 7:00 -
Fr, 17.09. 6:50 -
Fr, 17.09. 6:40 -
Fr, 17.09. 6:30 -
Fr, 17.09. 6:00 -
Fr, 17.09. 5:30 -
Fr, 17.09. 5:00 -
Fr, 17.09. 4:30 -
Link zu dieser Seite / Seite empfehlen

Das Wetter in ...